Regional Weather Roundup
Issued by NWS

Home | Current Version | Previous Version | Graphics & Text | Print | Product List | Glossary On
Versions: 1 2 3 4 5 6 7 8 9 10 11 12 13 14 15 16 17 18 19 20 21 22 23 24 25 26 27 28 29 30 31 32 33 34 35 36 37 38 39 40 41 42 43 44 45 46 47 48 49 50
774
ASUS43 KTOP 271459
RWRKS

WEATHER ROUNDUP FOR KANSAS
NATIONAL WEATHER SERVICE GOODLAND KS
1000 AM CDT SAT AUG 27 2016

NOTE:  "FAIR" INDICATES FEW OR NO CLOUDS BELOW 12,000 FEET WITH NO
SIGNIFICANT WEATHER AND/OR OBSTRUCTIONS TO VISIBILITY.

KSZ001>006-013>018-027>032-041>047-271600-
NORTHWEST KANSAS

CITY           SKY/WX    TMP DP  RH WIND       PRES   REMARKS
GOODLAND       FOG       59  58  96 NE6       30.09R VSB 1/2
HAYS           SUNNY     70  55  60 E8        30.06R
HILL CITY      SUNNY     67  61  81 N3        30.07S
RUSSELL        SUNNY     69  63  81 NE6       30.05R
$$

KSZ061>065-074>080-084>089-271600-
SOUTHWEST KANSAS

CITY           SKY/WX    TMP DP  RH WIND       PRES   REMARKS
DODGE CITY     SUNNY     73  62  68 SE8       30.06F
ELKHART          N/A     72  59  64 SW12        N/A
GARDEN CITY    SUNNY     70  60  70 SE16      30.06S
GREAT BEND     SUNNY     70  59  68 SE5       30.05R
LIBERAL        MOSUNNY   70  61  73 SE13      30.08R
$$

KSZ066>073-081>083-090>101-271600-
SOUTHEAST KANSAS

CITY           SKY/WX    TMP DP  RH WIND       PRES   REMARKS
CHANUTE        SUNNY     79  72  79 S9        30.05F
COFFEYVILLE    SUNNY     80  72  76 S9        30.06F
HUTCHINSON     SUNNY     75  67  76 E6        30.04R
MEDICINE LODGE   N/A     70  66  87 SE7       30.06S
NEWTON         SUNNY     75  68  78 SE13      30.04S
PARSONS        SUNNY     79  72  79 S8        30.07F
WICHITA INTL   MOSUNNY   77  69  76 E8        30.03S
WICHITA JABRA  SUNNY     75  71  87 SE12      30.04S
WINFIELD       MOSUNNY   76  71  85 SE9       30.05S
$$

KSZ007>012-019>026-033>040-048>060-102>105-271600-
NORTHEAST KANSAS

CITY           SKY/WX    TMP DP  RH WIND       PRES   REMARKS
CONCORDIA      MOSUNNY   69  65  86 CALM      30.05S
EMPORIA        MOSUNNY   75  70  84 S10       30.04S
LAWRENCE       SUNNY     76  71  85 E6        30.03S
MANHATTAN      SUNNY     74  68  81 S5        30.04R
OLATHE IND     SUNNY     77  70  79 S8        30.05S
OLATHE EXE     SUNNY     77  72  84 S8        30.05R
SALINA         MOSUNNY   72  66  81 S7        30.05R
TOPEKA BILLARD SUNNY     74  68  81 S3        30.03R
TOPEKA FORBES  SUNNY     77  68  73 S6        30.04R
$$




USA.gov is the U.S. government's official web portal to all federal, state and local government web resources and services.